Location: Rounton
(54.4000°N, 1.3500°W)
Time: 12:55:47
(UTC+00:00)

Transit 4A - Pass Details

Date: 08 December 2021
Orbit: 864 x 981 km, 66.8° (Epoch: 18 January)

Event Time Altitude Azimuth Distance (km) Brightness Sun altitude
Rises 03:44:28 0° 317° (NW) 3,612 - -37.5°
Reaches altitude 10° 03:47:09 10° 309° (NW) 2,681 - -37.1°
Maximum altitude 03:52:48 37° 245° (WSW) 1,469 - -36.3°
Drops below altitude 10° 03:58:32 10° 181° (S) 2,718 - -35.5°
Sets 04:01:17 0° 173° (S) 3,668 - -35.1°
